Location: Arclight Observatory
(36.5667°N, 87.3333°W)
Time: 08:06:59
(UTC-05:00)

ISS - Visible Passes

Search period start: 30 April 2016 00:00
Search period end: 10 May 2016 00:00
Orbit: 402 x 405 km, 51.6° (Epoch: 29 April)

Date Brightness Start Highest point End Pass type
(mag) Time Alt. Az. Time Alt. Az. Time Alt. Az.
06 May -1.7 05:15:11 10° SSW 05:18:05 30° SE 05:20:59 10° ENE visible
07 May -0.8 04:23:49 10° SSE 04:25:44 15° SE 04:27:40 10° E visible
08 May -3.3 05:06:14 11° SW 05:09:21 86° SE 05:12:37 10° NE visible
09 May -2.4 04:15:53 29° S 04:16:53 38° SE 04:19:57 10° ENE visible
